Torna al catalogo

COSMOS 970 DEB

AttivoLEO
NORAD 65004·DEBRIS·🇷🇺 Russia

Lanciato Dec 21, 1977 da Baikonur Cosmodrome

Loading…

Prossimi Passaggi (prossime 24 ore)

TLE

In scadenzaSource: Space-Track

Epoca: Sep 9, 2026, 01:04 UTC

1 65004U 77121DR  26252.04474958  .00000339  00000-0  30963-3 0  9990
2 65004  65.9020  34.4175 0109222  50.3009 310.7631 13.93024685219695

Traccia COSMOS 970 DEB in tempo reale con AllMySat

Download on the App Store